Wauseon Fulton County Airport, OH

9:59 PM EDT on April 19, 2018 (GMT -0400)
Fulton County

Weather History for KUSE - May, 2014

Change the Weather History Date:

Friday, May 23, 2014

  Actual Average (KTOL) Record (KTOL)
Temperature  
Mean Temperature 60 °F -  
Max Temperature 71 °F 72 °F 91 °F (1964)
Min Temperature 48 °F 49 °F 27 °F (1963)
Degree Days  
Heating Degree Days 6    
Growing Degree Days 10 (Base 50)    
Moisture  
Dew Point 46 °F    
Average Humidity 59    
Maximum Humidity 82    
Minimum Humidity 38    
Precipitation  
Precipitation 0.00 in - - ()
Sea Level Pressure  
Sea Level Pressure 30.12 in    
Wind  
Wind Speed 8 mph (NNW)    
Max Wind Speed 17 mph    
Max Gust Speed 24 mph    
Visibility 10 miles    
Events      
Averages and records for this station are not official NWS values.
T = Trace of Precipitation, MM = Missing Value Source: NWS Daily Summary

Daily Weather History Graph

Daily Weather History Graph

Search for Another Location

Airport or City:

Astronomy

May. 23, 2014 Rise Set
Actual Time 6:10 AM EDT 8:56 PM EDT
Civil Twilight 5:37 AM EDT 9:29 PM EDT
Nautical Twilight 4:56 AM EDT 10:10 PM EDT
Astronomical Twilight 4:10 AM EDT 10:57 PM EDT
Moon 3:08 AM EDT (5/23) 3:44 PM EDT (5/23)
Length of Visible Light 15h 51m
Length of Day
14h 46m
Waning Crescent, 27% of the Moon is Illuminated
May 23
Waning Crescent
May 28
New
Jun 5
First Quarter
Jun 13
Full
Jun 19
Last Quarter

Hourly Weather History & Observations

Time (EDT) Temp. Dew Point Humidity Pressure Visibility Wind Dir Wind Speed Gust Speed Precip Events Conditions
12:15 AM 57.2 °F 46.4 °F 67% 30.07 in 10.0 mi NW 8.1 mph - N/A   Mostly Cloudy
12:35 AM 57.2 °F 46.4 °F 67% 30.07 in 10.0 mi NW 9.2 mph - N/A   Mostly Cloudy
12:55 AM 57.2 °F 46.4 °F 67% 30.07 in 10.0 mi NNW 8.1 mph - N/A   Scattered Clouds
1:15 AM 57.2 °F 46.4 °F 67% 30.07 in 10.0 mi North 6.9 mph - N/A   Partly Cloudy
1:35 AM 57.2 °F 48.2 °F 72% 30.07 in 10.0 mi NNW 5.8 mph - N/A   Clear
1:55 AM 55.4 °F 46.4 °F 72% 30.06 in 10.0 mi NNW 5.8 mph - N/A   Clear
2:15 AM 53.6 °F 46.4 °F 77% 30.06 in 10.0 mi NW 5.8 mph - N/A   Partly Cloudy
2:35 AM 53.6 °F 46.4 °F 77% 30.06 in 10.0 mi NW 5.8 mph - N/A   Partly Cloudy
2:55 AM 53.6 °F 46.4 °F 77% 30.07 in 10.0 mi NNW 5.8 mph - N/A   Mostly Cloudy
3:15 AM 55.4 °F 46.4 °F 72% 30.07 in 10.0 mi NNW 5.8 mph - N/A   Mostly Cloudy
3:35 AM 55.4 °F 44.6 °F 67% 30.07 in 10.0 mi NNW 6.9 mph - N/A   Mostly Cloudy
3:55 AM 53.6 °F 44.6 °F 72% 30.07 in 10.0 mi NNW 6.9 mph - N/A   Partly Cloudy
4:15 AM 53.6 °F 44.6 °F 72% 30.08 in 10.0 mi NNW 4.6 mph - N/A   Clear
4:35 AM 51.8 °F 44.6 °F 76% 30.08 in 10.0 mi NNW 4.6 mph - N/A   Clear
4:55 AM 51.8 °F 44.6 °F 76% 30.08 in 10.0 mi NNW 5.8 mph - N/A   Clear
5:15 AM 51.8 °F 42.8 °F 71% 30.09 in 10.0 mi NNW 5.8 mph - N/A   Clear
5:35 AM 51.8 °F 42.8 °F 71% 30.09 in 10.0 mi NNW 4.6 mph - N/A   Clear
5:55 AM 51.8 °F 42.8 °F 71% 30.10 in 10.0 mi NNW 5.8 mph - N/A   Clear
6:15 AM 50.0 °F 42.8 °F 76% 30.10 in 10.0 mi NW 5.8 mph - N/A   Clear
6:35 AM 48.2 °F 42.8 °F 82% 30.10 in 10.0 mi WNW 3.5 mph - N/A   Clear
6:55 AM 50.0 °F 44.6 °F 82% 30.11 in 10.0 mi NW 6.9 mph - N/A   Clear
7:15 AM 51.8 °F 44.6 °F 76% 30.12 in 10.0 mi NW 8.1 mph - N/A   Clear
7:35 AM 51.8 °F 44.6 °F 76% 30.12 in 10.0 mi NW 6.9 mph - N/A   Clear
7:55 AM 53.6 °F 44.6 °F 72% 30.12 in 10.0 mi NW 10.4 mph - N/A   Clear
8:15 AM 55.4 °F 44.6 °F 67% 30.12 in 10.0 mi NW 15.0 mph - N/A   Clear
8:35 AM 55.4 °F 44.6 °F 67% 30.13 in 10.0 mi NW 15.0 mph - N/A   Clear
8:55 AM 55.4 °F 44.6 °F 67% 30.13 in 10.0 mi NW 15.0 mph 21.9 mph N/A   Clear
9:15 AM 57.2 °F 44.6 °F 63% 30.14 in 10.0 mi NNW 12.7 mph 19.6 mph N/A   Clear
9:35 AM 57.2 °F 44.6 °F 63% 30.14 in 10.0 mi NW 13.8 mph 20.7 mph N/A   Clear
9:55 AM 59.0 °F 44.6 °F 59% 30.14 in 10.0 mi NNW 13.8 mph - N/A   Clear
10:15 AM 60.8 °F 44.6 °F 55% 30.14 in 10.0 mi NW 17.3 mph - N/A   Clear
10:35 AM 60.8 °F 44.6 °F 55% 30.13 in 10.0 mi NW 12.7 mph 21.9 mph N/A   Clear
10:55 AM 62.6 °F 44.6 °F 52% 30.13 in 10.0 mi NW 17.3 mph 24.2 mph N/A   Clear
11:15 AM 62.6 °F 44.6 °F 52% 30.13 in 10.0 mi NNW 15.0 mph 23.0 mph N/A   Clear
11:35 AM 64.4 °F 44.6 °F 49% 30.14 in 10.0 mi NNW 12.7 mph 19.6 mph N/A   Clear
11:55 AM 62.6 °F 44.6 °F 52% 30.14 in 10.0 mi NW 15.0 mph - N/A   Clear
12:35 PM 66.2 °F 44.6 °F 46% 30.14 in 10.0 mi NW 16.1 mph - N/A   Partly Cloudy
12:55 PM 66.2 °F 44.6 °F 46% 30.14 in 10.0 mi NNW 13.8 mph 20.7 mph N/A   Partly Cloudy
1:15 PM 66.2 °F 44.6 °F 46% 30.14 in 10.0 mi NNW 13.8 mph - N/A   Clear
1:35 PM 68.0 °F 44.6 °F 43% 30.14 in 10.0 mi North 9.2 mph - N/A   Scattered Clouds
1:55 PM 68.0 °F 44.6 °F 43% 30.14 in 10.0 mi North 10.4 mph 18.4 mph N/A   Partly Cloudy
2:15 PM 68.0 °F 44.6 °F 43% 30.14 in 10.0 mi North 10.4 mph 17.3 mph N/A   Clear
2:55 PM 69.8 °F 44.6 °F 40% 30.13 in 9.0 mi NNW 12.7 mph - N/A   Clear
3:15 PM 69.8 °F 46.4 °F 43% 30.13 in 10.0 mi NW 13.8 mph 21.9 mph N/A   Clear
3:35 PM 69.8 °F 46.4 °F 43% 30.12 in 9.0 mi North 11.5 mph - N/A   Clear
4:15 PM 69.8 °F 46.4 °F 43% 30.12 in 10.0 mi Variable 4.6 mph 18.4 mph N/A   Partly Cloudy
4:35 PM 71.6 °F 46.4 °F 41% 30.12 in 10.0 mi WNW 5.8 mph 17.3 mph N/A   Partly Cloudy
4:55 PM 71.6 °F 46.4 °F 41% 30.12 in 10.0 mi WNW 6.9 mph 15.0 mph N/A   Scattered Clouds
5:15 PM 71.6 °F 44.6 °F 38% 30.12 in 10.0 mi NW 11.5 mph - N/A   Partly Cloudy
5:35 PM 71.6 °F 44.6 °F 38% 30.12 in 10.0 mi North 9.2 mph - N/A   Clear
5:55 PM 71.6 °F 44.6 °F 38% 30.12 in 10.0 mi Variable 3.5 mph 12.7 mph N/A   Clear
6:15 PM 71.6 °F 44.6 °F 38% 30.12 in 10.0 mi North 5.8 mph 15.0 mph N/A   Mostly Cloudy
6:35 PM 69.8 °F 46.4 °F 43% 30.12 in 10.0 mi North 12.7 mph - N/A   Partly Cloudy
6:55 PM 71.6 °F 46.4 °F 41% 30.12 in 10.0 mi North 11.5 mph 18.4 mph N/A   Partly Cloudy
7:15 PM 71.6 °F 44.6 °F 38% 30.12 in 10.0 mi Variable 4.6 mph 13.8 mph N/A   Scattered Clouds
7:35 PM 69.8 °F 46.4 °F 43% 30.12 in 10.0 mi NNW 10.4 mph 18.4 mph N/A   Scattered Clouds
7:55 PM 69.8 °F 46.4 °F 43% 30.12 in 10.0 mi North 9.2 mph - N/A   Mostly Cloudy
8:15 PM 68.0 °F 46.4 °F 46% 30.13 in 10.0 mi NNE 8.1 mph - N/A   Mostly Cloudy
8:35 PM 68.0 °F 46.4 °F 46% 30.13 in 10.0 mi North 6.9 mph 12.7 mph N/A   Scattered Clouds
8:55 PM 64.4 °F 48.2 °F 56% 30.13 in 10.0 mi North 5.8 mph - N/A   Partly Cloudy
9:15 PM 64.4 °F 46.4 °F 52% 30.13 in 10.0 mi NNE 4.6 mph - N/A   Clear
9:35 PM 64.4 °F 46.4 °F 52% 30.14 in 10.0 mi North 4.6 mph - N/A   Clear
9:55 PM 62.6 °F 48.2 °F 59% 30.14 in 10.0 mi NNE 4.6 mph - N/A   Clear
10:15 PM 62.6 °F 48.2 °F 59% 30.15 in 10.0 mi Calm Calm - N/A   Clear
10:35 PM 59.0 °F 48.2 °F 67% 30.15 in 10.0 mi Calm Calm - N/A   Clear
10:55 PM 59.0 °F 48.2 °F 67% 30.16 in 10.0 mi Calm Calm - N/A   Clear
11:15 PM 57.2 °F 50.0 °F 77% 30.16 in 10.0 mi Calm Calm - N/A   Clear
11:35 PM 57.2 °F 50.0 °F 77% 30.16 in 10.0 mi Calm Calm - N/A   Clear
11:55 PM 57.2 °F 50.0 °F 77% 30.16 in 10.0 mi Calm Calm - N/A   Clear